Date String (YYYY-MM-DD hh:mm:ss) UTC,Instrument flags,Ambient pressure (hPa),Sample flow (lpm),Bypass flow (lpm),Sample temperature (°C),Ambient temperature (°C),ASC tube jacket temperature (°C),LED temperature (°C),Box temperature (°C),Sample RH (%),Span deviation,Mass concentration (μg/m³),Mass concentration (μg/m³),Mass concentration (μg/m³)
DateTimeUTC,F1_M11,P_M11,Q1_M11,Q2_M11,T1_M11,T2_M11,T3_M11,T4_M11,T5_M11,U1_M11,ZSPAN_M11,X0_M11,X2_M11,X1_M11
2022-12-07 07:00:00,,0824.2,5.00,0.00,21.4,20.0,00.0,30.4,23.2,10.4,0000.0,0001.90,0001.25,0000.97
2022-12-07 07:01:00,,0824.2,5.00,0.00,21.4,20.0,00.0,30.4,23.2,10.3,0000.0,0001.92,0001.25,0000.97
2022-12-07 07:02:00,,0824.3,5.00,0.00,21.4,19.9,00.0,30.4,23.2,10.4,0000.0,0002.07,0001.30,0001.00
2022-12-07 07:03:00,,0824.2,5.01,0.00,21.4,19.9,00.0,30.4,23.2,10.4,0000.0,0002.19,0001.33,0001.02
2022-12-07 07:04:00,,0824.3,5.00,0.00,21.4,20.0,00.0,30.4,23.2,10.4,0000.0,0002.11,0001.32,0001.03
2022-12-07 07:05:00,,0824.2,4.99,0.00,21.4,19.9,00.0,30.4,23.1,10.3,0000.0,0001.97,0001.27,0001.02
2022-12-07 07:06:00,,0824.2,5.00,0.00,21.4,20.0,00.0,30.4,23.1,10.4,0000.0,0001.91,0001.25,0001.01
2022-12-07 07:07:00,,0824.3,5.01,0.00,21.4,20.9,00.0,30.3,23.3,10.3,0000.0,0001.86,0001.22,0000.99
2022-12-07 07:08:00,,0824.2,5.00,0.00,21.6,21.8,00.0,30.3,23.6,10.2,0000.0,0001.78,0001.17,0000.98
2022-12-07 07:09:00,,0824.2,4.99,0.00,21.6,21.6,00.0,30.4,23.6,10.2,0000.0,0001.72,0001.13,0000.96
2022-12-07 07:10:00,,0824.3,5.00,0.00,21.6,21.2,00.0,30.4,23.5,10.2,0000.0,0001.72,0001.14,0000.96
2022-12-07 07:11:00,,0824.2,5.01,0.00,21.6,20.9,00.0,30.4,23.5,10.2,0000.0,0001.69,0001.12,0000.94
2022-12-07 07:12:00,,0824.2,5.00,0.00,21.6,20.7,00.0,30.5,23.4,10.2,0000.0,0001.72,0001.09,0000.92
2022-12-07 07:13:00,,0824.2,5.00,0.00,21.6,20.5,00.0,30.5,23.4,10.2,0000.0,0001.63,0001.02,0000.88
2022-12-07 07:14:00,,0824.3,4.99,0.00,21.6,20.4,00.0,30.5,23.4,10.1,0000.0,0001.50,0000.99,0000.85
2022-12-07 07:15:00,,0824.3,4.99,0.00,21.6,20.2,00.0,30.5,23.3,10.1,0000.0,0001.50,0000.97,0000.82
2022-12-07 07:16:00,,0824.3,5.01,0.00,21.6,20.0,00.0,30.5,23.3,10.1,0000.0,0001.55,0000.98,0000.80
2022-12-07 07:17:00,,0824.3,5.00,0.00,21.5,19.8,00.0,30.5,23.2,10.0,0000.0,0001.70,0001.00,0000.79
2022-12-07 07:18:00,,0824.3,5.00,0.00,21.5,19.9,00.0,30.5,23.2,10.1,0000.0,0001.80,0001.04,0000.80
2022-12-07 07:19:00,,0824.3,5.00,0.00,21.5,19.9,00.0,30.5,23.2,10.1,0000.0,0001.82,0001.07,0000.82
2022-12-07 07:20:00,,0824.3,4.99,0.00,21.5,20.0,00.0,30.5,23.3,10.1,0000.0,0001.87,0001.10,0000.84
2022-12-07 07:21:00,,0824.3,4.99,0.00,21.5,20.0,00.0,30.5,23.3,09.9,0000.0,0001.88,0001.12,0000.85
2022-12-07 07:22:00,,0824.3,4.99,0.00,21.5,20.0,00.0,30.5,23.3,09.9,0000.0,0001.88,0001.13,0000.87
2022-12-07 07:23:00,,0824.3,5.00,0.00,21.5,20.1,00.0,30.5,23.3,09.9,0000.0,0001.81,0001.13,0000.89
2022-12-07 07:24:00,,0824.3,5.00,0.00,21.5,20.1,00.0,30.5,23.3,09.9,0000.0,0001.73,0001.15,0000.90
2022-12-07 07:25:00,,0824.3,5.01,0.00,21.5,20.0,00.0,30.5,23.2,09.8,0000.0,0001.83,0001.21,0000.92
2022-12-07 07:26:00,,0824.3,5.00,0.00,21.4,19.9,00.0,30.5,23.2,09.9,0000.0,0001.83,0001.21,0000.93
2022-12-07 07:27:00,,0824.3,5.00,0.00,21.4,19.8,00.0,30.5,23.1,10.0,0000.0,0001.79,0001.20,0000.93
2022-12-07 07:28:00,,0824.4,5.00,0.00,21.4,19.8,00.0,30.4,23.1,10.0,0000.0,0001.71,0001.19,0000.93
2022-12-07 07:29:00,,0824.4,5.00,0.00,21.4,19.7,00.0,30.4,23.1,10.0,0000.0,0001.63,0001.15,0000.92
2022-12-07 07:30:00,,0824.4,5.00,0.00,21.3,19.7,00.0,30.4,23.1,10.0,0000.0,0001.73,0001.15,0000.90
2022-12-07 07:31:00,,0824.4,5.00,0.00,21.3,19.9,00.0,30.4,23.1,10.0,0000.0,0001.75,0001.14,0000.88
2022-12-07 07:32:00,,0824.4,5.00,0.00,21.4,20.8,00.0,30.3,23.3,09.9,0000.0,0001.71,0001.09,0000.84
2022-12-07 07:33:00,,0824.5,5.00,0.00,21.5,21.8,00.0,30.3,23.5,09.9,0000.0,0001.70,0001.07,0000.81
2022-12-07 07:34:00,,0824.4,4.99,0.00,21.6,21.6,00.0,30.4,23.6,09.8,0000.0,0001.75,0001.08,0000.79
2022-12-07 07:35:00,,0824.4,4.99,0.00,21.6,21.2,00.0,30.4,23.5,09.7,0000.0,0001.71,0001.06,0000.77
2022-12-07 07:36:00,,0824.4,5.00,0.00,21.6,20.9,00.0,30.5,23.4,09.7,0000.0,0001.67,0001.02,0000.75
2022-12-07 07:37:00,,0824.4,5.02,0.00,21.6,20.6,00.0,30.5,23.4,09.7,0000.0,0001.68,0001.00,0000.72
2022-12-07 07:38:00,,0824.5,5.00,0.00,21.6,20.3,00.0,30.5,23.3,09.7,0000.0,0001.69,0001.00,0000.72
2022-12-07 07:39:00,,0824.5,5.00,0.00,21.5,20.2,00.0,30.5,23.3,09.7,0000.0,0001.67,0001.00,0000.73
2022-12-07 07:40:00,,0824.4,4.99,0.00,21.5,20.0,00.0,30.5,23.2,09.7,0000.0,0001.65,0001.00,0000.73
2022-12-07 07:41:00,,0824.4,5.00,0.00,21.5,19.9,00.0,30.5,23.2,09.7,0000.0,0001.49,0000.96,0000.72
2022-12-07 07:42:00,,0824.4,5.01,0.00,21.5,19.9,00.0,30.5,23.2,09.6,0000.0,0001.58,0000.96,0000.72
2022-12-07 07:43:00,,0824.4,5.01,0.00,21.5,19.9,00.0,30.5,23.2,09.5,0000.0,0001.58,0000.96,0000.72
2022-12-07 07:44:00,,0824.5,4.99,0.00,21.5,19.9,00.0,30.5,23.2,09.6,0000.0,0001.56,0000.95,0000.72
2022-12-07 07:45:00,,0824.5,4.99,0.00,21.5,19.9,00.0,30.5,23.2,09.5,0000.0,0001.55,0000.96,0000.71
2022-12-07 07:46:00,,0824.5,5.00,0.00,21.4,19.9,00.0,30.5,23.2,09.5,0000.0,0001.58,0000.97,0000.72
2022-12-07 07:47:00,,0824.5,5.01,0.00,21.4,19.8,00.0,30.5,23.2,09.4,0000.0,0001.59,0000.97,0000.73
2022-12-07 07:48:00,,0824.5,5.01,0.00,21.4,19.7,00.0,30.4,23.1,09.4,0000.0,0001.58,0000.97,0000.73
2022-12-07 07:49:00,,0824.6,5.00,0.00,21.4,19.8,00.0,30.4,23.1,09.5,0000.0,0001.57,0000.96,0000.73
2022-12-07 07:50:00,,0824.5,4.99,0.00,21.4,19.7,00.0,30.4,23.1,09.5,0000.0,0001.69,0000.98,0000.73
2022-12-07 07:51:00,,0824.5,4.99,0.00,21.3,19.6,00.0,30.4,23.1,09.5,0000.0,0001.70,0000.97,0000.72
2022-12-07 07:52:00,,0824.5,5.01,0.00,21.3,19.6,00.0,30.4,23.1,09.6,0000.0,0001.73,0000.97,0000.71
2022-12-07 07:53:00,,0824.8,5.01,0.00,21.3,19.6,00.0,30.4,23.0,09.6,0000.0,0001.62,0000.95,0000.70
2022-12-07 07:54:00,,0824.4,5.01,0.00,21.3,19.8,00.0,30.4,23.1,09.7,0000.0,0001.49,0000.91,0000.69
2022-12-07 07:55:00,,0824.5,5.00,0.00,21.4,20.9,00.0,30.3,23.3,09.7,0000.0,0001.50,0000.91,0000.69
2022-12-07 07:56:00,,0824.6,5.00,0.00,21.5,21.8,00.0,30.3,23.6,09.5,0000.0,0001.44,0000.88,0000.67
2022-12-07 07:57:00,,0824.6,5.00,0.00,21.6,21.7,00.0,30.3,23.6,09.5,0000.0,0001.39,0000.85,0000.66
2022-12-07 07:58:00,,0824.4,4.98,0.00,21.6,21.4,00.0,30.4,23.6,09.3,0000.0,0001.33,0000.83,0000.64
2022-12-07 07:59:00,,0824.5,5.00,0.00,21.6,21.2,00.0,30.4,23.5,09.2,0000.0,0001.41,0000.81,0000.64
